Regional Weather Roundup
Issued by NWS

Home | Current Version | Previous Version | Graphics & Text | Print | Product List | Glossary On
Versions: 1 2 3 4 5 6 7 8 9 10 11 12 13 14 15 16 17 18 19 20 21 22 23 24 25 26 27 28 29 30 31 32 33 34 35 36 37 38 39 40 41 42 43 44 45 46 47 48 49 50
981
ASUS44 KJAN 242310
RWRMS

MISSISSIPPI HOURLY WEATHER ROUNDUP
NATIONAL WEATHER SERVICE JACKSON MS
600 PM CDT THU JUL 24 2014

NOTE: "FAIR: INDICATES FEW OR NO CLOUDS BELOW 12,000 FEET WITH NO
SIGNIFICANT WEATHER AND/OR OBSTRUCTIONS TO VISIBILITY.

MSZ001>002-007>008-010>013-018>021-025>028-034>036-250000-
NORTHWEST MISSISSIPPI

CITY           SKY/WX    TMP DP  RH WIND       PRES   REMARKS
CLARKSDALE     FAIR      82  66  57 N7        30.01S
CLEVELAND      FAIR      82  73  74 N10       29.98F
GREENWOOD      MOSUNNY   84  72  67 N9        29.96F
GREENVILLE     PTSUNNY   85  73  67 N12       29.98S HX  91
GRENADA        MOCLDY    84  70  61 NW10      29.97F
OLIVE BRANCH   MOSUNNY   79  57  47 N7        30.01F
OXFORD         FAIR      81  59  47 N7        30.01F
TUNICA         CLEAR     79  59  50 N8        30.01F
$$

MSZ003>006-009-014>017-022>024-029>033-037>039-250000-
NORTHEAST MISSISSIPPI

CITY           SKY/WX    TMP DP  RH WIND       PRES   REMARKS
BELMONT        FAIR      80  64  58 NW6       29.98S
COLUMBUS AFB   SUNNY     86  69  58 NW10      29.95F HX  90
CORINTH        FAIR      81  59  47 NW8       29.99F
GOLDN TRIANGLE MOSUNNY   88  72  58 N14       29.95F HX  94
STARKVILLE     FAIR      86  72  62 N5        29.95S HX  92
TUPELO         SUNNY     82  63  52 N15       29.97F
$$

MSZ040-058-250000-
CENTRAL MISSISSIPPI

CITY           SKY/WX    TMP DP  RH WIND       PRES   REMARKS
JACKSON INTL   MOSUNNY   87  73  62 N8        29.93F HX  94
JACKSON HAWKNS PTSUNNY   88  71  57 N5        29.94F HX  94
MERIDIAN KEY   RAIN      74  72  93 S3        29.96R FOG
MERIDIAN NAS   PTSUNNY   79  73  82 SW7       29.94S
RAYMOND        FAIR      86  81  84 NW5       29.94S HX 102
VICKSBURG      SUNNY     88  74  63 N7        29.94F HX  96
$$

MSZ059>079-250000-
SOUTH MISSISSIPPI

CITY           SKY/WX    TMP DP  RH WIND       PRES   REMARKS
BROOKHAVEN     LGT RAIN  75  73  94 W8        29.98S
COLUMBIA       FAIR      90  73  58 NW6       29.92S HX  98
HATTIESBURG    SUNNY     90  69  50 S5        29.92F HX  94
MCCOMB         PTSUNNY   85  73  67 NW6       29.95F HX  91
NATCHEZ        MOSUNNY   88  73  62 N5        29.96S HX  96
PINE BELT      SUNNY     90  70  51 W3        29.95F HX  95
$$

MSZ080>082-250000-
COASTAL MISSISSIPPI

CITY           SKY/WX    TMP DP  RH WIND       PRES   REMARKS
BAY ST LOUIS   MOSUNNY  N/A N/A N/A S3        29.93F
BILOXI         SUNNY     84  73  69 SW7       29.93F HX  90
PASCAGOULA     SUNNY     84  72  67 S8        29.93F
GULFPORT       MOSUNNY   88  72  58 VRB6      29.93F HX  94
$$



USA.gov is the U.S. government's official web portal to all federal, state and local government web resources and services.